Weather History for KVAY - October, 2013

Change the Weather History Date:

Saturday, October 26, 2013

  Actual Average (KWRI) Record (KWRI)
Temperature  
Mean Temperature 44 °F -  
Max Temperature 55 °F 61 °F 70 °F (2010)
Min Temperature 33 °F 40 °F 31 °F (2013)
Degree Days  
Heating Degree Days 21    
Moisture  
Dew Point 30 °F    
Average Humidity 60    
Maximum Humidity 89    
Minimum Humidity 32    
Precipitation  
Precipitation 0.00 in - - ()
Sea Level Pressure  
Sea Level Pressure 30.12 in    
Wind  
Wind Speed 3 mph (SW)    
Max Wind Speed 10 mph    
Max Gust Speed 23 mph    
Visibility 10 miles    
Events      
Averages and records for this station are not official NWS values.
T = Trace of Precipitation, MM = Missing Value Source: NWS Daily Summary

Daily Weather History Graph

Daily Weather History Graph

Search for Another Location

Airport or City:

Trip Planner

Search our weather history database for the weather conditions in past years. The results will help you decide how hot, cold, wet, or windy it might be!

Date:

Astronomy

Oct. 26, 2013 Rise Set
Actual Time 7:21 AM EDT 6:04 PM EDT
Civil Twilight 6:54 AM EDT 6:31 PM EDT
Nautical Twilight 6:22 AM EDT 7:03 PM EDT
Astronomical Twilight 5:50 AM EDT 7:34 PM EDT
Moon No Moon Rise 1:36 PM EDT (10/26)
Length of Visible Light 11h 37m
Length of Day
10h 42m
Waning Gibbous, 53% of the Moon is Illuminated
Oct 26
Waning Gibbous
Oct 26
Last Quarter
Nov 3
New
Nov 10
First Quarter
Nov 17
Full

Hourly Weather History & Observations

Time (EDT) Temp. Windchill Dew Point Humidity Pressure Visibility Wind Dir Wind Speed Gust Speed Precip Events Conditions
12:54 AM 39.0 °F 36.8 °F 30.9 °F 73% 30.27 in 10.0 mi SW 3.5 mph - N/A   Clear
1:54 AM 36.0 °F - 30.9 °F 82% 30.25 in 10.0 mi Calm Calm - N/A   Clear
2:54 AM 36.0 °F - 30.9 °F 82% 30.25 in 10.0 mi Calm Calm - N/A   Clear
3:54 AM 35.1 °F - 30.0 °F 82% 30.25 in 10.0 mi Calm Calm - N/A   Clear
4:54 AM 34.0 °F - 30.0 °F 85% 30.24 in 10.0 mi Calm Calm - N/A   Clear
5:54 AM 33.1 °F - 30.0 °F 89% 30.24 in 10.0 mi Calm Calm - N/A   Clear
6:54 AM 33.1 °F - 28.9 °F 85% 30.24 in 10.0 mi Calm Calm - N/A   Clear
7:54 AM 33.1 °F - 30.0 °F 89% 30.24 in 9.0 mi Calm Calm - N/A   Clear
8:54 AM 37.9 °F - 32.0 °F 79% 30.24 in 10.0 mi Calm Calm - N/A   Clear
9:54 AM 44.1 °F 39.5 °F 32.0 °F 63% 30.22 in 10.0 mi SW 8.1 mph - N/A   Clear
10:54 AM 48.0 °F - 30.0 °F 50% 30.20 in 10.0 mi SW 9.2 mph - N/A   Clear
11:54 AM 52.0 °F - 28.9 °F 41% 30.17 in 10.0 mi SW 10.4 mph 18.4 mph N/A   Clear
12:54 PM 54.0 °F - 28.0 °F 37% 30.13 in 10.0 mi SW 10.4 mph 23.0 mph N/A   Clear
1:54 PM 54.0 °F - 28.9 °F 38% 30.09 in 10.0 mi SSW 10.4 mph 20.7 mph N/A   Clear
2:54 PM 55.0 °F - 28.9 °F 37% 30.06 in 10.0 mi SSW 10.4 mph 20.7 mph N/A   Clear
3:54 PM 55.9 °F - 30.0 °F 37% 30.03 in 10.0 mi Variable 5.8 mph 21.9 mph N/A   Clear
4:54 PM 55.9 °F - 26.1 °F 32% 30.01 in 10.0 mi SW 9.2 mph 17.3 mph N/A   Clear
5:54 PM 53.1 °F - 28.0 °F 38% 29.98 in 10.0 mi SSW 3.5 mph - N/A   Clear
6:54 PM 50.0 °F - 28.9 °F 44% 29.95 in 10.0 mi Variable 3.5 mph - N/A   Clear
7:54 PM 46.9 °F - 30.0 °F 52% 29.98 in 10.0 mi Calm Calm - N/A   Clear
8:54 PM 44.1 °F - 30.9 °F 60% 29.96 in 10.0 mi Calm Calm - N/A   Clear
9:54 PM 45.0 °F - 33.1 °F 63% 29.96 in 10.0 mi Calm Calm - N/A   Mostly Cloudy
10:54 PM 48.0 °F - 32.0 °F 54% 29.94 in 10.0 mi Calm Calm - N/A   Overcast
11:54 PM 50.0 °F - 30.9 °F 48% 29.93 in 10.0 mi SSW 3.5 mph - N/A   Overcast